Location: Unspecified
(41.1637°N, 24.2901°E)
Time: 11:16:19
(UTC+02:00)

ISS - Pass Details

Date: 08 May 2026
Orbit: 414 x 424 km, 51.6° (Epoch: 12 May)

Event Time Altitude Azimuth Distance (km) Brightness Sun altitude
Rises 22:29:11 0° 269° (W) 2,346 0.4 -26.2°
Reaches altitude 10° 22:31:33 10° 285° (WNW) 1,486 -0.5 -26.5°
Maximum altitude 22:34:17 23° 339° (NNW) 941 -1.3 -26.7°
Enters shadow 22:35:04 21° 1° (N) 1,000 -1.3 -26.8°
